Location: Vancouver
(49.2500°N, 123.1330°W)
Time: 08:53:00
(UTC-08:00)

Cosmos 2333 Rocket - Visible Passes

Search period start: 14 February 2016 00:00
Search period end: 24 February 2016 00:00
Orbit: 838 x 864 km, 70.8° (Epoch: 13 February)

Date Brightness Start Highest point End Pass type
(mag) Time Alt. Az. Time Alt. Az. Time Alt. Az.
14 Feb 4.7 19:26:01 10° WNW 19:28:52 14° NNW 19:31:43 10° N visible
15 Feb 4.7 19:13:49 10° WNW 19:16:39 14° NNW 19:19:30 10° N visible
16 Feb 4.6 19:01:36 10° WNW 19:04:27 14° NNW 19:07:17 10° N visible
17 Feb 4.6 18:49:24 10° WNW 18:52:14 14° NNW 18:55:04 10° N visible
18 Feb 4.6 18:37:12 10° WNW 18:40:01 14° NNW 18:42:51 10° N visible
19 Feb 4.6 18:25:00 10° WNW 18:27:49 14° NNW 18:30:38 10° N visible
19 Feb 4.9 21:59:34 10° N 21:59:47 10° N 21:59:47 10° N visible
20 Feb 4.6 18:12:47 10° WNW 18:15:36 14° NNW 18:18:26 10° N visible
20 Feb 4.8 21:47:22 10° N 21:47:54 11° N 21:47:54 11° N visible
21 Feb 4.7 21:35:09 10° N 21:36:01 12° N 21:36:01 12° N visible
22 Feb 4.6 21:22:57 10° N 21:24:08 12° N 21:24:08 12° N visible
22 Feb 5.2 23:06:07 10° NNW 23:06:08 10° NNW 23:06:08 10° NNW visible
23 Feb 4.6 21:10:44 10° N 21:12:15 13° NNE 21:12:15 13° NNE visible
23 Feb 5.0 22:53:55 10° NNW 22:54:15 12° NNW 22:54:15 12° NNW visible
